IRIDIUM 116

Last updated on Sun Jun 21 2026 00:03:14 GMT+0000 (Coordinated Universal Time)

1 43072U 17083C 26171.42434198 .00000005 00000+0 -54342-5 0 9995 2 43072 86.3962 320.6477 0001915 100.4565 259.6846 14.34217502444638
UTC large
Height (km)
Speed (km/s)
/
Latitude / Longitude
Inclination (degrees)
Orbital Period (minutes)
Azimuth
Elevation
Range (km)
Doppler Factor

Next 0 passes for location: London (51.5072 / 0.1276)

No passes found over London.
IRIDIUM 116